[[{"header":{"parameterUnit":"m.s-1","parameterCategory":1,"la1":30.2991,"la2":30.254,"lo1":-89.0895,"lo2":-89.0444,"dy":0.0017,"dx":0.0017,"nx":28,"ny":28,"refTime":"2024-04-14T03:00:00:Z","depth":0,"parameterNumber":2,"parameterNumberName":"U-component_of_WINDS"},"data":[0,0,0,0,0,0,0,0,0,0,0,0,0,0,0,0,0,0,0,0,0,0,0,0,0,0,0,0,0,0,0,0,0,0,0,0,0,0,0,0,0,0,0,0,0,0,0,0,0,0,0,0,0,0,0,0,0,0,-2.8991,-2.8992,0,-2.9016,-2.9016,-2.9016,-2.8982,-2.8981,-2.8979,-2.8978,-2.9002,-2.9003,-2.9005,0,0,0,0,0,0,0,0,0,0,0,0,0,-2.8914,-2.8915,-2.8991,-2.8992,-2.8992,-2.9016,-2.9016,-2.9016,-2.8982,-2.8981,-2.8979,-2.8978,-2.9001,-2.9003,-2.9005,0,0,0,0,0,0,0,0,0,0,0,0,0,-2.8944,-2.8916,-2.8991,-2.8978,-2.8977,-2.9016,-2.9016,-2.9016,-2.8982,-2.8981,-2.8979,-2.8977,-2.9,-2.9003,-2.9005,-2.9058,0,0,-2.9013,-2.9015,0,0,0,0,0,0,0,0,-2.8942,-2.8946,-2.8979,-2.8979,-2.8978,-2.8994,-2.8997,-2.903,-2.8983,-2.898,-2.8978,-2.8976,-2.9,-2.9003,-2.9011,-2.9059,-2.906,-2.9014,-2.9015,-2.9016,-2.9017,0,0,0,0,0,0,0,-2.894,-2.8945,-2.9001,-2.898,-2.8979,-2.897,-2.8972,-2.9003,-2.9,-2.898,-2.8978,-2.8981,-2.8999,-2.9009,-2.9012,-2.906,-2.9014,-2.9016,-2.9017,-2.9019,-2.9151,-2.9153,0,0,0,0,0,0,-2.894,-2.8944,-2.9,-2.9002,-2.8955,-2.8973,-2.8975,-2.8991,-2.9,-2.8999,-2.8983,-2.898,-2.9005,-2.9009,-2.9012,-2.9073,-2.9016,-2.9019,-2.902,-2.9149,-2.9151,-2.9153,0,0,0,0,0,0,-2.8938,-2.8945,-2.8999,-2.8972,-2.8978,-2.8976,-2.8993,-2.8992,-2.9001,-2.9002,-2.9001,-2.8993,-2.9004,-2.9009,-2.9047,-2.9073,-2.902,-2.9022,-2.9147,-2.915,-2.9152,-2.9196,0,0,0,0,0,0,-2.8936,-2.8945,-2.8965,-2.8973,-2.898,-2.9034,-2.8995,-2.8994,-2.9006,-2.9002,-2.9011,-2.9011,-2.9003,-2.9043,-2.9049,-2.9076,-2.9024,-2.9144,-2.9148,-2.9152,-2.9192,-2.92,-2.9206,0,0,0,0,0,-2.8933,-2.8976,-2.8966,-2.8973,-2.9005,-2.9035,-2.9039,-2.903,-2.9008,-2.9028,-2.9029,-2.901,-2.907,-2.9047,-2.9054,-2.9082,-2.9142,-2.9147,-2.9151,-2.9188,-2.9198,-2.9206,0,0,0,0,0,0,-2.8971,-2.8977,-2.8966,-2.9013,-2.9024,-2.9029,-2.9054,-2.9041,-2.9058,-2.9053,-2.904,-2.9043,-2.9083,-2.9087,-2.9061,-2.9133,-2.9102,-2.9108,-2.9128,-2.9138,-2.9145,-2.9142,-2.9027,0,0,0,0,0,-2.8985,-2.9009,-2.9013,-2.9054,-2.906,-2.9057,-2.9069,-2.9061,-2.9072,-2.9076,-2.9079,-2.909,-2.9111,-2.9125,-2.9144,-2.9193,-2.9193,-2.9215,-2.9223,-2.9229,-2.9233,-2.9258,-2.9267,-2.9168,-2.9168,-2.9168,0,0,-2.9013,-2.902,-2.9036,-2.9062,-2.9069,-2.9094,-2.9061,-2.9088,-2.9106,-2.908,-2.9116,-2.9119,-2.913,-2.9173,-2.9192,-2.9177,-2.9261,-2.9234,-2.9239,-2.924,-2.9263,-2.9273,-2.9281,-2.9171,-2.917,-2.917,0,0,-2.9077,-2.9086,-2.912,-2.9128,-2.914,-2.9138,-2.9146,-2.9154,-2.9155,-2.9191,-2.9171,-2.9193,-2.9229,-2.9238,-2.9247,-2.9314,-2.9298,-2.9321,-2.9359,-2.9383,-2.939,-2.9397,-2.9419,-2.9428,-2.9326,-2.9326,-2.9326,0,-2.9111,-2.9148,-2.9139,-2.9168,-2.9179,-2.9158,-2.9191,-2.92,-2.9218,-2.9226,-2.9209,-2.9254,-2.926,-2.9304,-2.9321,-2.933,-2.9338,-2.9319,-2.939,-2.9397,-2.9403,-2.9424,-2.9433,-2.9329,-2.9329,-2.9328,-2.9328,0,-2.9188,-2.9214,-2.924,-2.9258,-2.9272,-2.9304,-2.9299,-2.9314,-2.9305,-2.9304,-2.9341,-2.9347,-2.9367,-2.9377,-2.9369,-2.942,-2.941,-2.9392,-2.9361,-2.9415,-2.9435,-2.9443,-2.9333,-2.9332,-2.9331,-2.933,0,0,-2.9275,-2.9288,-2.9297,-2.9305,-2.9317,-2.9336,-2.9367,-2.9386,-2.9399,-2.9413,-2.9437,-2.9469,-2.9452,-2.9462,-2.9454,-2.9476,-2.9527,-2.9455,-2.9455,-2.9466,-2.9582,-2.9594,-2.9603,-2.9517,-2.9518,-2.952,-2.958,0,-2.9337,-2.939,-2.9382,-2.9432,-2.9455,-2.9436,-2.9462,-2.9472,-2.9472,-2.9491,-2.9491,-2.9513,-2.949,-2.9496,-2.9516,-2.9516,-2.9549,-2.9512,-2.9537,-2.9538,-2.9533,-2.9614,-2.9626,-2.9683,-2.9588,-2.9589,-2.959,0,-2.9417,-2.9433,-2.9485,-2.9493,-2.9503,-2.9526,-2.9543,-2.9563,-2.9573,-2.9572,-2.9583,-2.9572,-2.9601,-2.9571,-2.9611,-2.9585,-2.9596,-2.9597,-2.9599,-2.9599,-2.9566,-2.9614,-2.9701,-2.9709,-2.9602,-2.9601,-2.9601,0,-2.9473,-2.9508,-2.9543,-2.9551,-2.9561,-2.9578,-2.9583,-2.9592,-2.9604,-2.9619,-2.9627,-2.9645,-2.9655,-2.9669,-2.9662,-2.9642,-2.9702,-2.9672,-2.97,-2.97,-2.9712,-2.9711,-2.98,-2.9723,-2.9722,-2.9722,-2.9722,0,-2.9542,-2.9574,-2.9568,-2.959,-2.9625,-2.9617,-2.9651,-2.9654,-2.9662,-2.9683,-2.9668,-2.9688,-2.9679,-2.9698,-2.9694,-2.9726,-2.9731,-2.9729,-2.9727,-2.973,-2.9729,-2.9734,-2.9729,-2.9724,-2.9724,-2.9724,-2.9723,0,-2.9609,-2.9607,-2.9644,-2.9651,-2.9654,-2.9679,-2.9685,-2.9704,-2.9704,-2.9731,-2.9736,-2.9735,-2.9757,-2.9752,-2.9776,-2.9773,-2.9813,-2.9807,-2.9809,-2.9807,-2.9834,-2.9831,-2.9927,-2.9939,-2.9856,-2.9857,-2.9858,0,-2.9652,-2.9677,-2.9687,-2.97,-2.9706,-2.9728,-2.974,-2.9733,-2.9746,-2.976,-2.9778,-2.9799,-2.9814,-2.985,-2.9851,-2.9869,-2.9862,-2.9894,-2.9864,-2.9865,-2.986,-2.9857,-2.9859,-2.99,-2.99,-2.9901,-2.9902,0,-2.9729,-2.9726,-2.9745,-2.9763,-2.9778,-2.9792,-2.9805,-2.9816,-2.981,-2.9826,-2.9848,-2.986,-2.9885,-2.9905,-2.9922,-2.9926,-2.9912,-2.9912,-2.9919,-2.992,-2.9919,-2.9918,-2.9823,-2.9909,-2.9908,-2.9908,-2.9907,-2.9907,-2.9784,-2.9804,-2.9814,-2.9835,-2.9844,-2.9856,-2.9874,-2.9876,-2.9894,-2.9914,-2.9909,-2.9934,-2.9943,-2.9964,-2.9971,-2.9989,-2.9977,-2.9988,-2.999,-2.9992,-2.9994,-2.9919,-2.9993,-2.9993,-2.9992,-2.9992,-2.9992,0,-2.9857,-2.9863,-2.9883,-2.99,-2.9917,-2.9904,-2.9917,-2.9931,-2.9953,-2.9964,-2.998,-3.0005,-3.0024,-3.0027,-3.0045,-3.0059,-3.0053,-3.0064,-3.0062,-3.0063,-3.0006,-2.9997,-3.0068,-3.0068,-3.0068,-3.0068,-3.0068,-3.0068,-2.9897,-2.993,-2.9929,-2.9966,-2.9971,-2.9996,-3.0004,-3.0015,-3.0023,-3.0051,-3.0068,-3.0069,-3.0076,-3.0095,-3.0112,-3.0112,-3.0118,-3.0131,-3.0128,-3.0075,-3.0067,-3.0059,-3.0051,-3.0133,-3.0133,-3.0183,-3.0184,-3.0184]},{"header":{"parameterUnit":"m.s-1","parameterCategory":1,"la1":30.2991,"la2":30.254,"lo1":-89.0895,"lo2":-89.0444,"dy":0.0017,"dx":0.0017,"nx":28,"ny":28,"refTime":"2024-04-14T03:00:00:Z","depth":0,"parameterNumber":3,"parameterNumberName":"V-component_of_WINDS"},"data":[0,0,0,0,0,0,0,0,0,0,0,0,0,0,0,0,0,0,0,0,0,0,0,0,0,0,0,0,0,0,0,0,0,0,0,0,0,0,0,0,0,0,0,0,0,0,0,0,0,0,0,0,0,0,0,0,0,0,1.6375,1.6375,0,1.6329,1.6329,1.6328,1.6289,1.6288,1.6288,1.6288,1.6238,1.6237,1.6237,0,0,0,0,0,0,0,0,0,0,0,0,0,1.6427,1.6426,1.6375,1.6374,1.6374,1.6329,1.6329,1.6328,1.6289,1.6288,1.6288,1.6287,1.6239,1.6238,1.6236,0,0,0,0,0,0,0,0,0,0,0,0,0,1.6395,1.6426,1.6375,1.6349,1.6346,1.6329,1.6329,1.6328,1.6289,1.6288,1.6288,1.6287,1.6239,1.6238,1.6236,1.6241,0,0,1.6232,1.6232,0,0,0,0,0,0,0,0,1.6397,1.6393,1.6353,1.6351,1.6348,1.6314,1.6329,1.6299,1.6289,1.6311,1.6288,1.6287,1.6264,1.626,1.6253,1.6239,1.6237,1.6232,1.6231,1.6231,1.623,0,0,0,0,0,0,0,1.6399,1.6395,1.6357,1.6353,1.6349,1.6339,1.6334,1.6323,1.6291,1.6309,1.6306,1.6301,1.6262,1.6255,1.6252,1.6236,1.6232,1.6231,1.623,1.623,1.6223,1.6223,0,0,0,0,0,0,1.6406,1.6397,1.6358,1.6355,1.6371,1.6339,1.6333,1.6325,1.6291,1.6286,1.6302,1.6299,1.6257,1.6253,1.625,1.6253,1.6231,1.6229,1.6229,1.6222,1.6223,1.6224,0,0,0,0,0,0,1.6407,1.6402,1.636,1.6375,1.6369,1.6338,1.6331,1.6325,1.6317,1.6286,1.628,1.63,1.6257,1.6252,1.6244,1.6251,1.6229,1.6228,1.6221,1.6222,1.6223,1.626,0,0,0,0,0,0,1.6408,1.6403,1.6405,1.6376,1.6369,1.6355,1.6331,1.6325,1.6315,1.6312,1.6283,1.6277,1.6256,1.6246,1.6242,1.6249,1.6226,1.6221,1.6222,1.6223,1.6258,1.6262,1.6265,0,0,0,0,0,1.641,1.6417,1.6405,1.6401,1.637,1.6356,1.6352,1.6327,1.6316,1.6318,1.6297,1.6278,1.6251,1.6245,1.6241,1.6247,1.622,1.6221,1.6223,1.6256,1.6261,1.6265,0,0,0,0,0,0,1.6447,1.6412,1.6399,1.6397,1.638,1.6349,1.635,1.6333,1.6319,1.6316,1.6286,1.6279,1.6275,1.626,1.6255,1.625,1.6233,1.6233,1.626,1.6264,1.6268,1.6271,1.6225,0,0,0,0,0,1.6455,1.6447,1.6416,1.6417,1.6409,1.6381,1.6374,1.6357,1.6338,1.633,1.6309,1.6291,1.6278,1.627,1.6257,1.6256,1.6248,1.6258,1.6261,1.6265,1.6265,1.6264,1.6267,1.6228,1.6228,1.6228,0,0,1.6471,1.6451,1.6447,1.6424,1.6408,1.64,1.6375,1.6368,1.6361,1.6329,1.632,1.6304,1.6282,1.6277,1.6274,1.6265,1.6275,1.6266,1.6269,1.6268,1.6265,1.6269,1.6273,1.6229,1.6229,1.6229,0,0,1.6495,1.6479,1.6478,1.6464,1.6441,1.6423,1.6423,1.6395,1.6383,1.6374,1.635,1.6341,1.632,1.6305,1.6294,1.6314,1.6296,1.631,1.633,1.6329,1.6332,1.6334,1.6341,1.6344,1.6311,1.6311,1.6311,0,1.6517,1.6504,1.6479,1.6473,1.6463,1.6435,1.6433,1.642,1.6394,1.6387,1.6377,1.635,1.6333,1.6325,1.6329,1.6322,1.632,1.6313,1.6333,1.6336,1.6338,1.6344,1.6346,1.6313,1.6313,1.6313,1.6313,0,1.6533,1.6524,1.6526,1.6502,1.6493,1.6489,1.6462,1.6456,1.6439,1.6422,1.6413,1.6391,1.6373,1.637,1.6353,1.6359,1.6354,1.6339,1.6321,1.6344,1.6349,1.6351,1.6316,1.6315,1.6315,1.6314,0,0,1.6579,1.6542,1.6543,1.6532,1.6506,1.6498,1.6493,1.6475,1.647,1.6453,1.6448,1.643,1.6417,1.6405,1.6387,1.6386,1.6402,1.6371,1.637,1.6377,1.6407,1.6418,1.6421,1.639,1.639,1.6391,1.6409,0,1.6599,1.6589,1.6566,1.6562,1.6553,1.6526,1.6521,1.6504,1.6488,1.6478,1.6459,1.6447,1.643,1.6423,1.6421,1.6401,1.6408,1.6399,1.6384,1.6384,1.639,1.6424,1.6436,1.6454,1.6411,1.6411,1.6411,0,1.6621,1.6607,1.6603,1.6577,1.6572,1.6568,1.6551,1.6542,1.6522,1.651,1.6497,1.6477,1.6469,1.6453,1.6442,1.6437,1.6429,1.6418,1.6418,1.6416,1.6399,1.6422,1.6459,1.6462,1.6414,1.6414,1.6414,0,1.6656,1.6635,1.663,1.6621,1.6591,1.6589,1.6576,1.6555,1.6546,1.6531,1.6525,1.6508,1.6499,1.6487,1.6463,1.6453,1.6454,1.6436,1.6443,1.6444,1.6444,1.6445,1.648,1.644,1.644,1.644,1.644,0,1.668,1.6679,1.6645,1.6641,1.6639,1.6612,1.661,1.6594,1.6576,1.6569,1.6544,1.6538,1.6507,1.6497,1.6478,1.6471,1.6467,1.6457,1.6452,1.6459,1.646,1.6453,1.6451,1.644,1.644,1.644,1.644,0,1.6718,1.6695,1.6688,1.666,1.6652,1.6652,1.6627,1.6623,1.6605,1.6596,1.6593,1.6565,1.6551,1.6526,1.6506,1.6493,1.6491,1.6482,1.6498,1.6495,1.6503,1.6503,1.6536,1.6539,1.6497,1.6497,1.6498,0,1.6735,1.6734,1.6706,1.6699,1.6688,1.6678,1.6669,1.6643,1.6634,1.6612,1.661,1.6595,1.6581,1.6562,1.6539,1.6523,1.6514,1.6526,1.6511,1.6519,1.6514,1.6514,1.6514,1.653,1.653,1.6531,1.6531,0,1.6769,1.6758,1.6746,1.6731,1.6721,1.6707,1.6692,1.6688,1.6659,1.665,1.6637,1.6627,1.6606,1.6592,1.6573,1.6559,1.654,1.6536,1.6537,1.6544,1.6554,1.6549,1.6507,1.6536,1.6535,1.6535,1.6535,1.6534,1.6797,1.6794,1.6774,1.6762,1.6748,1.6734,1.6729,1.6711,1.6699,1.6681,1.6666,1.6654,1.6634,1.6607,1.6594,1.6583,1.6574,1.6576,1.6576,1.6577,1.6579,1.6556,1.658,1.658,1.6579,1.6579,1.6579,0,1.6829,1.6815,1.6804,1.6784,1.6774,1.6758,1.6741,1.6734,1.6724,1.6707,1.6694,1.6679,1.6665,1.6641,1.6625,1.6621,1.6612,1.6617,1.6617,1.6614,1.6588,1.6589,1.6625,1.6625,1.6625,1.6625,1.6625,1.6625,1.6844,1.6839,1.6825,1.6812,1.6798,1.6786,1.6778,1.6765,1.6751,1.6735,1.6724,1.6709,1.6689,1.6671,1.6657,1.665,1.6645,1.6654,1.6644,1.662,1.6616,1.6612,1.6613,1.6653,1.6653,1.6671,1.6671,1.6671]}]]